Fallon NAS, NV

7:04 AM PST on January 21, 2018 (GMT -0800)
Fallon Naval Air Station

Weather History for KNFL - November, 2011

Change the Weather History Date:

Saturday, November 5, 2011

  Actual Average Record
Temperature  
Mean Temperature 29 °F -  
Max Temperature 46 °F 60 °F 80 °F (2001)
Min Temperature 15 °F 31 °F 3 °F (1935)
Degree Days  
Heating Degree Days 36    
Moisture  
Dew Point 15 °F    
Average Humidity 54    
Maximum Humidity 81    
Minimum Humidity 34    
Precipitation  
Precipitation 0.00 in - - ()
Sea Level Pressure  
Sea Level Pressure 29.80 in    
Wind  
Wind Speed 5 mph (SSE)    
Max Wind Speed 10 mph    
Max Gust Speed 18 mph    
Visibility 10 miles    
Events      
Averages and records for this station are not official NWS values.
T = Trace of Precipitation, MM = Missing Value Source: NWS Daily Summary

Daily Weather History Graph

Daily Weather History Graph

Search for Another Location

Airport or City:

Trip Planner

Search our weather history database for the weather conditions in past years. The results will help you decide how hot, cold, wet, or windy it might be!

Date:

Astronomy

Nov. 05, 2011 Rise Set
Actual Time 7:27 AM PDT 5:49 PM PDT
Civil Twilight 6:59 AM PDT 6:17 PM PDT
Nautical Twilight 6:27 AM PDT 6:49 PM PDT
Astronomical Twilight 5:55 AM PDT 7:20 PM PDT
Moon 3:08 PM PDT (11/5) 2:42 AM PDT (11/5)
Length of Visible Light 11h 18m
Length of Day
10h 21m
Waxing Gibbous, 79% of the Moon is Illuminated
Nov 5
Waxing Gibbous
Nov 10
Full
Nov 18
Last Quarter
Nov 24
New
Dec 2
First Quarter

Hourly Weather History & Observations

Time (PDT) Temp. Windchill Dew Point Humidity Pressure Visibility Wind Dir Wind Speed Gust Speed Precip Events Conditions
12:56 AM 21.9 °F - 12.9 °F 68% 29.79 in 10.0 mi Calm Calm - N/A   Clear
1:56 AM 24.1 °F 19.7 °F 12.9 °F 62% 29.78 in 10.0 mi West 3.5 mph - N/A   Partly Cloudy
2:56 AM 17.1 °F 7.6 °F 10.0 °F 74% 29.79 in 10.0 mi SSE 6.9 mph - N/A   Clear
3:56 AM 17.1 °F 6.6 °F 10.9 °F 77% 29.78 in 10.0 mi South 8.1 mph - N/A   Clear
4:56 AM 15.1 °F 7.7 °F 10.0 °F 80% 29.79 in 10.0 mi SE 4.6 mph - N/A   Clear
5:56 AM 19.0 °F 8.2 °F 12.9 °F 77% 29.79 in 10.0 mi SE 9.2 mph - N/A   Clear
6:56 AM 19.0 °F 11.1 °F 14.0 °F 81% 29.79 in 10.0 mi SSE 5.8 mph - N/A   Clear
7:56 AM 19.0 °F 9.0 °F 12.9 °F 77% 29.81 in 10.0 mi SE 8.1 mph - N/A   Clear
8:56 AM 27.0 °F 23.0 °F 16.0 °F 63% 29.83 in 10.0 mi South 3.5 mph - N/A   Partly Cloudy
9:01 AM 28.4 °F 23.3 °F 15.8 °F 59% 29.90 in 10.0 mi South 4.6 mph - N/A   Mostly Cloudy
9:56 AM 32.0 °F 27.5 °F 18.0 °F 56% 29.84 in 10.0 mi South 4.6 mph - N/A   Overcast
10:56 AM 35.1 °F - 17.1 °F 48% 29.85 in 10.0 mi Calm Calm - N/A   Overcast
11:56 AM 39.0 °F 34.0 °F 15.1 °F 38% 29.84 in 10.0 mi South 6.9 mph - N/A   Overcast
12:56 PM 41.0 °F 38.0 °F 15.1 °F 35% 29.82 in 10.0 mi South 4.6 mph - N/A   Overcast
1:56 PM 42.1 °F 38.4 °F 16.0 °F 35% 29.80 in 10.0 mi Variable 5.8 mph - N/A   Overcast
2:56 PM 43.0 °F 38.2 °F 17.1 °F 35% 29.79 in 10.0 mi West 8.1 mph - N/A   Overcast
3:56 PM 43.0 °F 40.3 °F 16.0 °F 34% 29.79 in 10.0 mi WSW 4.6 mph - N/A   Mostly Cloudy
4:56 PM 43.0 °F - 16.0 °F 34% 29.78 in 10.0 mi Calm Calm - N/A   Mostly Cloudy
5:56 PM 39.0 °F 34.8 °F 15.1 °F 38% 29.77 in 10.0 mi SE 5.8 mph - N/A   Overcast
6:56 PM 37.9 °F 30.9 °F 15.1 °F 39% 29.77 in 10.0 mi SE 10.4 mph - N/A   Scattered Clouds
7:56 PM 36.0 °F 28.5 °F 18.0 °F 48% 29.77 in 10.0 mi SE 10.4 mph - N/A   Clear
8:56 PM 33.1 °F 27.7 °F 18.0 °F 54% 29.76 in 10.0 mi SE 5.8 mph - N/A   Mostly Cloudy
9:56 PM 35.1 °F 31.0 °F 19.0 °F 52% 29.77 in 10.0 mi SSE 4.6 mph - N/A   Overcast
10:56 PM 37.9 °F 35.5 °F 16.0 °F 41% 29.77 in 10.0 mi SE 3.5 mph - N/A   Overcast
11:56 PM 39.9 °F 34.5 °F 19.0 °F 43% 29.78 in 8.0 mi SSW 8.1 mph 18.4 mph N/A   Overcast